Hourly Data Report for October 06, 2014

All times are specified in Local Standard Time (LST). Add 1 hour to adjust for Daylight Saving Time where and when it is observed.

PENTICTON A
BRITISH COLUMBIA

49°27'45.000" N
119°36'08.000" W
344.40 m
1126146
71889
YYF

Download Data

Hourly Data (October 2014)
Hourly Data Report for October 6, 2014
Temp Definition
°C
Dew Point Temp Definition
°C
Rel Hum Definition
%
Wind Dir Definition
10's deg

Wind Spd Definition
km/h
Visibility Definition
km
Stn Press Definition
kPa
Hmdx Definition


Wind Chill Definition


Weather Definition


TIME
00:00 Legend Double Dagger 9.3 8.2 93 3 7 24.1 97.51     LegendNANA
01:00 Legend Double Dagger 9.2 7.7 90 34 4 24.1 97.47     Mainly Clear
02:00 Legend Double Dagger 9.5 8.4 93 1 3 24.1 97.45     LegendNANA
03:00 Legend Double Dagger 9.1 8.4 95 36 3 24.1 97.43     LegendNANA
04:00 Legend Double Dagger 10.0 8.6 91 2 9 24.1 97.35     Clear
05:00 Legend Double Dagger 12.1 9.3 83 36 3 24.1 97.35     LegendNANA
06:00 Legend Double Dagger 11.4 8.8 84 3 8 24.1 97.37     LegendNANA
07:00 Legend Double Dagger 11.2 9.5 89 36 3 24.1 97.43     Mainly Clear
08:00 Legend Double Dagger 15.1 11.1 77 36 2 24.1 97.42     LegendNANA
09:00 Legend Double Dagger 16.5 10.2 66 14 4 24.1 97.39     LegendNANA
10:00 Legend Double Dagger 18.2 10.9 62 34 9 24.1 97.41     Mostly Cloudy
11:00 Legend Double Dagger 18.8 11.7 63 36 13 24.1 97.42     LegendNANA
12:00 Legend Double Dagger 20.0 11.6 58 36 15 24.1 97.39     LegendNANA
13:00 Legend Double Dagger 19.8 12.2 61 36 26 24.1 97.35     Mostly Cloudy
14:00 Legend Double Dagger 18.5 12.3 67 36 24 24.1 97.32     LegendNANA
15:00 Legend Double Dagger 19.9 12.3 61 2 20 24.1 97.30     LegendNANA
16:00 Legend Double Dagger 19.5 11.6 60 35 19 24.1 97.30     Mainly Clear
17:00 Legend Double Dagger 17.3 12.5 73 35 14 24.1 97.32     LegendNANA
18:00 Legend Double Dagger 16.2 12.8 80 34 12 24.1 97.34     LegendNANA
19:00 Legend Double Dagger 14.9 12.4 85 34 12 24.1 97.34     Mainly Clear
20:00 Legend Double Dagger 15.6 12.4 81 33 11 24.1 97.36     LegendNANA
21:00 Legend Double Dagger 13.0 11.1 88 36 12 24.1 97.37     LegendNANA
22:00 Legend Double Dagger 12.7 11.1 90 32 9 24.1 97.37     Mainly Clear
23:00 Legend Double Dagger 13.1 11.4 89 3 9 24.1 97.39     LegendNANA

Notes on Data Quality.

Legend

  • E = Estimated
  • M = Missing
  • NA = Not Available
  • ‡ = Partner data that is not subject to review by the National Climate Archives
Date modified: